[Iaude] MPEC L100: 2022 LO3 [a=1.70,e=0.47,i=10.0,H=26.7]

mpec at marsden.cfa.harvard.edu mpec at marsden.cfa.harvard.edu
Tue Jun 14 00:02:58 EDT 2022


M.P.E.C. 2022-L100                                Issued 2022 June 14, 04:01 UT

     The Minor Planet Electronic Circulars contain information on unusual
         minor planets and routine data on comets.  They are published
    on behalf of Division F of the International Astronomical Union by the
          Minor Planet Center, Smithsonian Astrophysical Observatory,
                          Cambridge, MA 02138, U.S.A.

             Prepared using the Tamkin Foundation Computer Network

                              MPC at CFA.HARVARD.EDU
            URL https://www.minorplanetcenter.net/    ISSN 1523-6714

                                    2022 LO3                                    


Observations:
     K22L03O  C2022 06 02.34970116 11 37.802+12 11 24.53               VEL100F52
     K22L03O  C2022 06 02.36134716 11 37.018+12 11 38.27         22.83GVEL100F52
     K22L03O  C2022 06 02.37311816 11 36.226+12 11 51.85         23.00GVEL100F52
     K22L03O  C2022 06 02.38482016 11 35.396+12 12 05.77         22.72GVEL100F52
     K22L03O* C2022 06 13.32724015 42 38.513+28 31 40.94         19.83GVEL100G96
     K22L03O  C2022 06 13.33860415 42 23.724+28 37 39.76         19.06GVEL100G96
     K22L03O  C2022 06 13.34427915 42 16.276+28 40 39.68         20.06GVEL100G96
     K22L03O KC2022 06 13.40684915 40 53.990+29 14 27.70         18.89GVEL100I52
     K22L03O KC2022 06 13.40741515 40 53.250+29 14 46.80         18.46GVEL100I52
     K22L03O KC2022 06 13.40797915 40 52.470+29 15 05.40         19.30GVEL100I52
     K22L03O KC2022 06 13.40854215 40 51.760+29 15 24.10         18.66GVEL100I52
     K22L03O KC2022 06 13.84699315 30 17.27 +34 34 59.1                XEL100595
     K22L03O KC2022 06 13.85210015 30 05.03 +34 39 42.6                XEL100595
     K22L03O KC2022 06 13.85722015 29 52.70 +34 44 26.7          19.1 GXEL100595
     K22L03O KC2022 06 13.88258315 29 02.13 +35 08 27.4          19.5 GXEL100I93
     K22L03O KC2022 06 13.88767915 28 49.25 +35 13 22.1          19.0 GXEL100I93
     K22L03O KC2022 06 13.89276415 28 36.32 +35 18 16.4          18.6 GXEL100I93
     K22L03O KC2022 06 13.91417515 27 41.43 +35 39 24.1          18.8 GXEL100958
     K22L03O KC2022 06 13.91728415 27 33.18 +35 42 29.0          18.6 GXEL100958
     K22L03O KC2022 06 13.92039515 27 24.90 +35 45 33.6          18.5 GXEL100958
     K22L03O KC2022 06 13.94112615 26 29.762+36 04 19.63         18.6 GVEL100J95
     K22L03O KC2022 06 13.94322615 26 24.036+36 06 27.11         18.4 GVEL100J95
     K22L03O KC2022 06 13.95081415 26 03.242+36 14 09.42         18.4 GVEL100J95
     K22L03O KC2022 06 13.95329 15 25 45.49 +36 18 06.9          18.6 GXEL100G15
     K22L03O KC2022 06 13.95514315 25 51.228+36 18 35.24         19.1 GVEL100J95
     K22L03O KC2022 06 13.95642 15 25 36.70 +36 21 18.6                XEL100G15
     K22L03O KC2022 06 13.95935 15 25 28.38 +36 24 17.8          18.3 GXEL100G15
     K22L03O KC2022 06 13.96092315 25 35.122+36 24 31.36         19.2 GVEL100J95

Observer details:
595 Farra d'Isonzo.  Observer E. Pettarin.  0.61-m f/4.5 reflector + CCD.
958 Observatoire de Dax.  Observer P. Dupouy.  0.50-m f/4.5 Reflector + CCD.
F52 Pan-STARRS 2, Haleakala.  Observers J. Bulger, K. Chambers, T. Dukes, T.
    Lowe, A. Schultz, I. Smith.  Measurers S. Chastel, M. Huber, Y.
    Ramanjooloo, R. Wainscoat, R. Weryk.  1.8-m Ritchey-Chretien + CCD.
G15 Magroforte Observatory, Alessandria.  Observer A. De Pieri.  0.235-m f/6.7
    SC + CCD.
G96 Mt. Lemmon Survey.  Observers J. K. Hogan, D. C. Fuls.  Measurers E. J.
    Christensen, D. Fay, J. B. Fazekas, D. C. Fuls, A. R. Gibbs, A. D. Grauer,
    H. Groeller, J. K. Hogan, R. A. Kowalski, S. M. Larson, G. J. Leonard, D.
    Rankin, R. L. Seaman, A. Serrano, F. C. Shelly, K. W. Wierzchos.  1.5-m
    reflector + 10K CCD.
I52 Steward Observatory, Mt. Lemmon Station.  Observers J. B. Fazekas, G. J.
    Leonard.  Measurers E. J. Christensen, D. Fay, J. B. Fazekas, D. C. Fuls,
    A. R. Gibbs, A. D. Grauer, H. Groeller, J. K. Hogan, R. A. Kowalski, S. M.
    Larson, G. J. Leonard, D. Rankin, R. L. Seaman, A. Serrano, F. C. Shelly,
    K. W. Wierzchos.  1.0-m prime focus + CCD.
I93 St Pardon de Conques.  Observers F. Losse, W. d'Anna.  Measurer F. Losse.
    0.40-m f/3.7 reflector + CCD.
J95 Great Shefford.  Observer P. Birtwhistle.  0.41-m f/6.3 Schmidt-Cassegrain
    + CCD.

Orbital elements:
2022 LO3                                                 Earth MOID = 0.0044 AU
Epoch 2022 Aug. 9.0 TT = JDT 2459800.5                  Veres                   
M   7.77475              (2000.0)            P               Q                  
n   0.44466126     Peri.  226.65250     +0.65107547     +0.73887658             
a   1.7000036      Node    84.81328     -0.63614829     +0.65601883             
e   0.4663179      Incl.   10.04296     -0.41402426     +0.15395030             
P   2.22           H   26.77          G   0.15           U   7                  
Residuals in seconds of arc
220602 F52  0.1+  0.2-    220613 I52  0.1+  0.0     220613 J95  0.0   0.2-
220602 F52  0.0   0.0     220613 595  0.4+  0.9-    220613 J95  0.0   0.2-
220602 F52  0.1+  0.1-    220613 595  0.1-  0.1-    220613 J95  0.2+  0.5-
220602 F52  0.3-  0.3+    220613 595  0.0   0.6-    220613 G15  0.9-  3.1+
220613 G96 (2.0-  2.6+)   220613 I93  0.2-  0.3-    220613 J95  0.1-  0.1-
220613 G96 (1.3-  2.8+)   220613 I93  0.5-  0.5+    220613 G15  0.9-  4.0+
220613 G96 (1.5-  2.7+)   220613 I93  0.5-  0.3+    220613 G15  1.7-  4.1+
220613 I52  0.1+  0.2-    220613 958  0.0   0.2-    220613 J95  0.1+  0.0
220613 I52  0.2+  0.2+    220613 958  0.2+  0.4+
220613 I52  0.3-  0.0     220613 958  0.6+  0.0

Ephemeris:
2022 LO3                 a,e,i = 1.70, 0.47, 10                  q = 0.9073
Date    TT    R. A. (2000) Decl.     Delta      r    Elong.  Phase     V
2022 05 15    16 14 51.4 +08 04 56   0.2181  1.2054   150.6    24.3    25.0
...
2022 05 30    16 12 55.1 +11 16 17   0.1094  1.1069   146.9    30.0    23.5
...
2022 06 07    16 08 26.7 +14 09 27   0.05515 1.0583   141.1    37.0    22.1
...
2022 06 13    15 47 57.5 +25 59 33   0.01556 1.0246   125.6    53.7    19.7
2022 06 14    15 24 08.9 +37 09 14   0.0094041.0193   112.9    66.6    19.0
2022 06 15    11 49 28.2 +68 19 41   0.0048721.0140    70.0   109.7    19.4
...
2022 06 21    04 24 39.1 -03 44 25   0.03895 0.9847    35.3   143.4    27.0
...
2022 06 29    04 20 55.4 -06 56 52   0.09282 0.9517    43.7   132.4    27.5
...
2022 07 14    04 27 04.5 -06 27 47   0.1957  0.9133    53.4   116.7    27.6

M. P. C. Staff               (C) Copyright 2022 MPC           M.P.E.C. 2022-L100




More information about the Iaude mailing list